This is the latest recevied weather packets stored in our database for station/object YG1CIC-13. If no packets are shown the sender has not sent any weather packets the latest 10 day(s).
| Time | Temp. | Humidity | Pressure | Rain* | Wind** | Luminosity | Snow |
|---|---|---|---|---|---|---|---|
| 1777113626 | 31.67° C | 79% | - | 0 mm | - | - | - |
| 1777113025 | 31.67° C | 81% | - | 0 mm | - | - | - |
| 1777112425 | 31.67° C | 79% | - | 0 mm | - | - | - |
| 1777111824 | 32.22° C | 79% | - | 0 mm | - | - | - |
| 1777111224 | 32.22° C | 78% | - | 0 mm | - | - | - |
| 1777110623 | 32.22° C | 78% | - | 0 mm | - | - | - |
| 1777110023 | 32.78° C | 76% | - | 0 mm | - | - | - |
| 1777109422 | 32.78° C | 76% | - | 0 mm | - | - | - |
| 1777108821 | 32.78° C | 76% | - | 0 mm | - | - | - |
| 1777108221 | 33.33° C | 75% | - | 0 mm | - | - | - |
| 1777107620 | 33.89° C | 73% | - | 0 mm | - | - | - |
| 1777107020 | 34.44° C | 71% | - | 0 mm | - | - | - |
| 1777106419 | 35° C | 69% | - | 0 mm | - | - | - |
| 1777105818 | 35° C | 68% | - | 0 mm | - | - | - |
| 1777105218 | 34.44° C | 69% | - | 0 mm | - | - | - |
| 1777104617 | 35.56° C | 67% | - | 0 mm | - | - | - |
| 1777104017 | 34.44° C | 67% | - | 0 mm | - | - | - |
| 1777103416 | 34.44° C | 63% | - | 0 mm | - | - | - |
| 1777102816 | 35° C | 64% | - | 0 mm | - | - | - |
| 1777102215 | 35.56° C | 63% | - | 0 mm | - | - | - |
| 1777101614 | 36.11° C | 61% | - | 0 mm | - | - | - |
| 1777101013 | 36.11° C | 60% | - | 0 mm | - | - | - |
| 1777100413 | 35.56° C | 62% | - | 0 mm | - | - | - |
| 1777099812 | 35.56° C | 62% | - | 0 mm | - | - | - |
| 1777099212 | 35.56° C | 61% | - | 0 mm | - | - | - |
* Rain latest hour (hover to see other rain measurements)
** Current wind speed in m/s (hover to see current wind gust speed)